Location: Berlin
(38.3226°N, 75.2177°W)
Time: 06:02:09
(UTC+00:00)

PSLV R/B - Pass Details

Date: 26 October 2020
Orbit: 567 x 599 km, 98.2° (Epoch: 26 November)

Event Time Altitude Azimuth Distance (km) Brightness Sun altitude
Rises 10:25:10 0° 168° (SSE) 2,816 7.7 -11.6°
Reaches altitude 10° 10:27:19 10° 170° (S) 1,922 6.8 -11.2°
Maximum altitude 10:31:29 80° 257° (WSW) 611 3.9 -10.4°
Drops below altitude 10° 10:35:43 10° 345° (NNW) 1,945 6.4 -9.6°
Sets 10:37:54 0° 347° (NNW) 2,852 7.2 -9.2°
